User: anonymous   Login
Location: Mountain View
(37.3861°N, 122.0839°W)
Time: 23:33:43
(UTC-07:00)
Language:

Tiangong - Orbit

View from above orbital plane
View from above orbital plane
View from above satellite
View from above satellite

Ground track
Ground track

The orbit data is extracted from the following two-line orbital elements,

1 48274U 21035A   21289.95462971  .00010393  00000-0  12186-3 0  9998
2 48274  41.4697 260.4329 0002193 244.7072 169.8274 15.61459293 26746
Epoch (UTC): 16 October 2021 22:54:40
Eccentricity: 0.0002193
inclination: 41.4697°
perigee height: 382 km
apogee height: 385 km
right ascension of ascending node: 260.4329°
argument of perigee: 244.7072°
revolutions per day: 15.61459293
mean anomaly at epoch: 169.8274°
orbit number at epoch: 2674

The dashed part of the orbit path shows where the satellite is in the earth's shadow,  

DLR